sat.trackr.live / text

‹ back to catalog

XINGYUN-2 01

NORAD 45602 · 2020-028A

PAYLOAD ACTIVE UNKNOWN

§ Identity

Operator
Country
PRC
Launch date
2020-05-12
Launch site
JSC
Launch vehicle
Mass (kg)
RCS (m²)

External: N2YO · Heavens-Above · Gunter

§ Orbital elements

Epoch: 2026-09-20T04:14:25.031040Z

Period
95.23 min
Inclination
97.4962°
Eccentricity
0.0007514
Mean motion
15.12151084 rev/d
Perigee alt
524.5 km
Apogee alt
534.8 km
Semi-major
6,907.8 km
B*
1.1332e-4
RAAN
253.7583°
Arg perigee
231.5416°
Mean anomaly
128.5141°
Rev number
34,919

§ Raw data

XINGYUN-2 011 45602U 20028A   26263.17667860  .00001890  00000+0  11332-3 0  99992 45602  97.4962 253.7583 0007514 231.5416 128.5141 15.12151084349194

JSON: /api/v1/satellites/45602 · /tle

For live sub-satellite position, see the globe view (requires WebGL).

§ Visibility from observer

Set your observer location to see the next 7 days of passes ≥ 10°. The values pass through the URL so the page stays shareable.

No JS? Fill the form by hand. The geolocation button needs JavaScript.

§ Radio — SatNOGS DB

ModeDescriptionDownlinkUplink
BPSK Mode L - IOT 1.522 GHz
FM Mode U center 272.500 MHz

2 transmitters · refreshed weekly from db.satnogs.org